Regional Weather Roundup
Issued by NWS State College, PA

Home | Current Version | Previous Version | Graphics & Text | Print | Product List | Glossary On
Versions: 1 2 3 4 5 6 7 8 9 10 11 12 13 14 15 16 17 18 19 20 21 22 23 24 25 26 27 28 29 30 31 32 33 34 35 36 37 38 39 40 41 42 43 44 45 46 47 48 49 50
000
ASUS41 KCTP 220603
RWRCTP

REGIONAL WEATHER ROUNDUP
NATIONAL WEATHER SERVICE STATE COLLEGE PA
200 AM EDT MON SEP 22 2014

Note: "fair" indicates few or no clouds below 12,000 feet with no
significant weather and/or obstructions to visibility.

* = STATION THAT DOES NOT REPORT PRECIPITATION /E.G. RAIN...SNOW...ETC/
    THUNDER OR FOG.

PAZ002>004-007>009-013>016-020>023-029>032-220700-
WESTERN PENNSYLVANIA

CITY           SKY/WX    TMP DP  RH WIND       PRES   REMARKS
ERIE           LGT RAIN  54  48  80 NW12G22   29.91R
MEADVILLE      LGT RAIN  50  48  93 NW7       29.92R FOG
FRANKLIN*      CLOUDY    50  46  87 NW7       29.91R
NEW CASTLE     NOT AVBL
BEAVER COUNTY  NOT AVBL
BUTLER*        CLOUDY    54  46  76 W6        29.93R
PITTSBURGH INT MOCLDY    54  50  86 NW14G24   29.92R
PITTSBURGH     CLOUDY    56  49  77 NW9G22    29.91R
INDIANA*       MOCLDY    55  50  82 NW8       29.91S
LATROBE        CLOUDY    55  54  94 W3        29.91R
WASHINGTON CO* CLOUDY    55  48  76 NW9       29.94R
$$

PAZ004>006-010>012-017>019-024>028-033>037-041-042-045-046-049>053-220700-
CENTRAL PENNSYLVANIA

CITY           SKY/WX    TMP DP  RH WIND       PRES   REMARKS
BRADFORD       CLOUDY    50  47  89 W16G24    29.83R
DUBOIS         CLOUDY    52  49  89 W14G25    29.85R
CLEARFIELD     PTCLDY    55  48  77 W10G23    29.82S
JOHNSTOWN      CLOUDY    52  49  89 NW14G24   29.87R
ALTOONA        CLOUDY    58  50  75 NW15G29   29.86R
STATE COLLEGE  CLOUDY    58  49  70 W15       29.81R
WILLIAMSPORT   RAIN      61  54  77 W9        29.74R
SELINSGROVE    PTCLDY    62  51  67 VRB5      29.76R
FT INDIANTOWN  CLEAR     66  53  62 W8G18     29.76R
CAPITAL CITY   CLEAR     66  48  52 W17       29.77R
HARRISBURG     PTCLDY    66  52  60 NW16G24   29.75R
YORK           CLEAR     64  49  57 W3        29.78R
$$

PAZ038>040-043-044-047-048-054-055-060>062-067>071-220700-
EASTERN PENNSYLVANIA

CITY           SKY/WX    TMP DP  RH WIND       PRES   REMARKS
SCRANTON       PTCLDY    61  58  90 SW5       29.73R
MOUNT POCONO   PTCLDY    58  50  75 W13G22    29.73R
ALLENTOWN      CLEAR     65  54  67 W6        29.71R
QUAKERTOWN*    CLEAR     64  55  72 CALM      29.73R
READING        CLEAR     64  56  75 NW6       29.72R
LANCASTER      PTCLDY    62  57  83 W8        29.75R
COATESVILLE    PTCLDY    63  61  94 W7        29.76R
POTTSTOWN      PTCLDY    64  59  83 VRB3      29.74R
BLUE BELL      CLEAR     66  61  82 CALM      29.71R
DOYLESTOWN     PTCLDY    65  62  90 VRB6      29.70R
WILLOW GROVE   NOT AVBL
NORTH PHILA    PTCLDY    70  58  65 NW13      29.72R
PHILADELPHIA   MOCLDY    71  61  70 W9        29.72R
$$



USA.gov is the U.S. government's official web portal to all federal, state and local government web resources and services.